Location: Unspecified
(0.0000°N, 0.0000°E)
Time: 09:54:28
(UTC+00:00)

Daily predictions for brighter satellites

Satellite Brightness Start Highest point End
(mag) Time Altitude Azimuth Time Altitude Azimuth Time Altitude Azimuth
Intercosmos 25 4.2 18:09:23 10° N 18:13:41 78° E 18:20:45 10° S
Hubble Space Telescope 2.0 18:13:23 10° WNW 18:17:21 44° SSW 18:21:19 10° SE
BLOCK DM-SL R/B 3.9 18:07:44 10° W 18:18:47 86° S 18:23:40 10° E
BREEZE-M DEB (TANK) 3.5 18:18:33 10° N 18:20:59 20° NE 18:22:49 10° E
SMAP 4.3 18:16:56 10° S 18:21:24 47° WSW 18:25:52 10° NNW
Delta 198 4.3 18:18:58 10° SW 18:22:14 29° SSE 18:25:25 10° E
Cosmos 1626 Rocket 4.1 18:18:57 10° SSE 18:23:03 37° E 18:27:09 10° NNE
GPS 2-18 Rocket1 3.3 18:20:55 10° WNW 18:24:43 56° NNE 18:28:38 10° ESE
MONITOR-E 4.4 18:21:53 10° S 18:25:05 78° W 18:28:15 10° NNW
Cosmos 1339 Rocket 4.5 18:19:33 10° S 18:25:38 66° E 18:31:38 10° NNE
Cosmos 1934 Rocket 4.1 18:28:07 10° N 18:34:21 64° E 18:40:39 10° SSE
ARIANE 5 R/B 3.5 18:33:46 10° SW 18:35:06 17° S 18:36:57 10° SE
Cosmos 1420 Rocket 4.4 18:30:35 10° SSW 18:35:51 70° WNW 18:41:08 10° N
BREEZE-M DEB (TANK) 4.4 18:35:27 10° SSW 18:39:11 43° ESE 18:47:47 13° NE
ATLAS 2AS CENTAUR R/B 4.1 18:32:33 10° NW 18:39:22 43° WSW 18:45:36 10° S
Cosmos 1066 Rocket 4.3 18:34:50 10° S 18:40:18 52° E 18:45:35 10° NNE
Cosmos 1726 Rocket 3.7 18:36:18 10° N 18:40:37 52° E 18:44:57 10° SSE
Cosmos 1833 Rocket 2.6 18:35:43 10° N 18:41:15 64° ENE 18:46:47 10° SSE
ARIANE 5 DEB (SYLDA) 2.1 18:41:07 10° W 18:43:16 83° S 18:47:27 12° E
Lacrosse 4 Rocket 1.9 18:43:04 10° S 18:47:23 47° ESE 18:50:39 16° NE
Cosmos 1666 3.1 18:45:37 10° NNW 18:49:28 66° W 18:53:19 10° S
PSLV R/B 4.3 18:48:59 10° SSW 18:51:52 30° SE 18:53:05 23° E
Cosmos 2082 Rocket 2.4 18:46:43 10° NNW 18:52:23 78° WSW 18:58:06 10° S
Helios 1B rocket 2.3 18:48:35 10° NNE 18:52:40 75° ESE 18:56:46 10° S
ALOS 3.6 18:54:15 10° SE 18:56:56 20° E 18:56:56 20° E
Cosmos 407 Rocket 4.0 18:53:27 10° NNE 18:58:08 34° ENE 19:02:51 10° SE
Cosmos 1606 Rocket 4.1 18:56:02 10° NNW 19:00:26 61° W 19:04:49 10° S
NOAA 12 4.0 18:55:41 10° SSE 19:00:57 67° ENE 19:06:10 10° N
SWIFT 2.2 19:00:18 10° WSW 19:04:31 79° NNW 19:06:16 34° ENE
Fermi 4.2 19:01:21 10° NW 19:05:14 40° NNE 19:06:11 34° ENE
SJ-6B 2.5 19:04:30 10° SSE 19:08:18 79° ENE 19:12:02 10° N
BLOCK DM-SL R/B 3.6 19:04:35 10° W 19:08:41 78° N 19:24:25 19° E
BLOCK DM-SL R/B 3.6 19:04:35 10° W 19:08:41 78° N 19:24:24 19° E
BLOCK DM-SL R/B 3.6 19:04:36 10° W 19:08:41 78° N 19:24:25 19° E
BLOCK DM-SL R/B 3.6 19:04:36 10° W 19:08:42 78° N 19:24:22 19° E
GPS 2-14 Rocket1 4.3 19:10:49 10° NNW 19:13:07 20° N 19:13:07 20° N
Cosmos 2123 Rocket 4.4 19:08:34 10° SSE 19:14:25 40° E 19:16:40 30° NE
Cosmos 1000 Rocket 4.4 19:08:55 10° S 19:15:04 88° E 19:21:11 10° N
Cosmos 1153 Rocket 4.4 19:09:05 10° N 19:15:06 63° E 19:21:11 10° SSE
FREGAT/IRIS 3.4 19:17:40 10° S 19:20:42 53° W 19:22:51 17° NNW
Cosmos 1605 Rocket 4.2 19:15:09 10° N 19:21:14 68° W 19:27:18 10° S
FENGYUN 3A 3.9 19:19:49 10° SSE 19:24:57 44° ENE 19:25:32 43° ENE
SAR-Lupe-4 3.7 19:21:28 10° SSE 19:24:29 58° SE 19:24:29 58° SE
BREEZE-M DEB (TANK) 4.1 19:21:42 10° NW 19:25:46 79° SW 19:36:35 10° SE
Cosmos 2100 Rocket 4.2 19:25:20 38° NE 19:26:44 44° E 19:32:31 10° SSE
Cosmos 1110 Rocket 4.0 19:22:48 10° SSW 19:28:06 82° WNW 19:30:49 30° N
METEOR-M 4.5 19:25:28 10° S 19:30:45 66° WSW 19:36:02 10° NNW
Cosmos 1943 Rocket 4.3 19:27:36 10° SW 19:31:58 23° WNW 19:36:18 10° NNW
HETE-2 4.5 19:31:33 10° W 19:35:31 81° WSW 19:35:31 81° WSW
HJ-1C 4.5 19:34:34 10° S 19:36:49 39° SSW 19:36:49 39° SSW
GPS 2-15 Rocket1 3.1 19:33:05 10° WNW 19:37:28 62° N 19:37:28 62° N
Cosmos 1953 Rocket 3.8 19:35:19 10° S 19:38:49 54° SSE 19:38:49 54° SSE
Cosmos 1758 Rocket 4.0 19:36:12 10° S 19:39:39 49° SSE 19:39:39 49° SSE
Cosmos 1842 3.9 19:36:55 10° S 19:39:52 49° S 19:39:52 49° S
Cosmos 2228 4.4 19:39:33 10° NNW 19:43:38 38° W 19:47:44 10° SSW
Cosmos 2061 Rocket 3.9 19:47:35 62° E 19:47:40 62° E 19:53:47 10° SSE
Cosmos 2173 Rocket 3.8 19:47:22 63° ENE 19:47:51 66° E 19:53:57 10° SSE
Ariane H10-3 4.1 19:44:43 10° WNW 19:48:37 48° NNE 19:49:19 47° NNE
Ariane H10 3.7 19:50:32 10° W 19:52:30 33° W 19:52:30 33° W
Milstar 3 3.6 19:50:50 10° WSW 19:58:38 77° NNW 20:02:31 47° NE
Cosmos 1302 Rocket 4.2 19:56:11 10° SSW 20:00:41 67° SW 20:00:41 67° SW
deb Ariane 4.3 20:00:23 10° W 20:04:24 39° WSW 20:04:24 39° WSW
Resurs 01 Rocket 3.1 20:03:11 10° SSW 20:07:12 35° WSW 20:08:01 32° WNW
Cosmos 1459 Rocket 4.0 20:06:31 63° NNW 20:07:31 76° W 20:13:49 10° S
ARIANE 42L R/B 4.2 20:09:29 10° W 20:14:09 78° N 20:15:55 62° ENE
ARIANE 42L R/B 4.2 20:09:30 10° W 20:14:10 78° N 20:15:54 62° ENE
ARIANE 42L R/B 4.2 20:09:30 10° W 20:14:10 78° N 20:15:55 62° ENE
ARIANE 42L R/B 4.2 20:09:29 10° W 20:14:10 78° N 20:15:55 62° ENE
ARIANE 42L R/B 4.2 20:09:29 10° W 20:14:10 78° N 20:15:54 62° ENE
NOSS 3-4 (A) 4.1 20:08:20 10° NNW 20:15:50 69° WSW 20:23:33 10° SSE
NOSS 3-4 (C) 4.1 20:08:26 10° NNW 20:15:56 70° WSW 20:23:40 10° SSE
Ariane H10 3.4 20:09:51 10° W 20:16:03 44° WSW 20:16:03 44° WSW
Ariane H10+ 4.4 20:19:49 10° W 20:26:01 37° W 20:26:01 37° W
Ariane H10 4.5 20:47:08 10° W 21:12:39 59° SW 21:12:39 59° SW
